Other Public Products
Issued by NWS Grand Forks, ND

Home | Current Version | Previous Version | Graphics & Text | Print | Product List | Glossary On
Versions: 1 2 3 4 5 6 7 8 9 10 11 12 13 14 15 16 17 18 19 20 21 22 23 24 25 26 27 28 29 30 31 32 33 34 35 36 37 38 39 40 41 42 43 44 45 46 47 48 49 50
000
FPUS83 KFGF 141010
OPUFGF
PRAIRIE TO PINES WEATHER ROUNDUP
NATIONAL WEATHER SERVICE EASTERN NORTH DAKOTA/GRAND FORKS ND
400 AM CST THU DEC 14 2017

 **SATELLITE DATA USED TO AUGMENT SKY COVER AT AUTOMATED STATIONS**
 *****  WEATHER ACROSS EASTERN NORTH DAKOTA  *****

CITY           SKY/WX    TMP DP  RH WIND       PRES   REMARKS
GRAND FORKS    CLOUDY    18  15  88 S6        29.99S WCI  10
GRND FORKS AFB FLURRIES  19  15  84 SW5       29.98F WCI  12
GRND FORKS NWS   N/A     18 N/A N/A W5          N/A  WCI  11
BUXTON         NOT AVBL
DEVILS LAKE    FLURRIES  21  20  96 S5        29.95F WCI  15
FARGO          CLOUDY    20  15  81 CALM      30.00F
WAHPETON ARPT    N/A     19  14  79 N5        30.01S WCI  13
$$

 *****  WEATHER ACROSS CENTRAL AND WESTERN NORTH DAKOTA  *****

CITY           SKY/WX    TMP DP  RH WIND       PRES   REMARKS
JAMESTOWN      CLOUDY    26  25  96 S3        29.94F
BISMARCK       CLOUDY    28  26  92 W5        29.98S WCI  23
MINOT          CLOUDY    33  28  81 NW15      29.97R WCI  23
MINOT AFB      CLOUDY    32  28  86 NW13      29.97R WCI  22
GARRISON         N/A     33  29  85 NW17      29.96R WCI  22
WILLISTON      CLOUDY    34  27  75 N22G33    30.06R WCI  22
DICKINSON      CLOUDY    32  29  88 NW17      30.00R WCI  21
HETTINGER      CLOUDY    33  28  81 NW23G31   30.02R WCI  21
$$

 *****  OTHER OBSERVATIONS NORTHEAST NORTH DAKOTA  *****

CITY           SKY/WX    TMP DP  RH WIND       PRES   REMARKS
WALHALLA       FLURRIES  21  21 100 MISG      29.98F
LANGDON        CLOUDY    21  21 100 W7        29.94S WCI  13
CAVALIER       FLURRIES  19  18  93 W3        29.99R
GRAFTON        FAIR      19  18  93 W7        30.01R WCI  10
CANDO          FLURRIES  23  23 100 CALM      29.97R
FORT TOTTEN      N/A     22  20  91 S3        29.95S
ROLLA          CLOUDY    25  25 100 CALM      29.93S
RUGBY          CLOUDY    28  28 100 NW7       29.94R WCI  21
 ***** THE ABOVE OBSERVATIONS ARE NON NWS ARE NOT QUALITY
        CONTROLLED AND MAY MIS-REPORT RAIN FOR SNOW...
$$

 *****  OTHER OBSERVATIONS SOUTHEAST NORTH DAKOTA *****

CITY           SKY/WX    TMP DP  RH WIND       PRES   REMARKS
COOPERSTOWN    CLOUDY    21  19  93 N6        29.96S WCI  14
VALLEY CITY    CLOUDY    21  21 100 CALM      29.98S
OAKES            N/A     25  25 100 S5        29.97F WCI  19
GWINNER          N/A     21  19  93 CALM      29.98S
SHEYENNE NWR     N/A     20  17  86 CALM      29.95S
BUFFALO        NOT AVBL
WYNDMERE       NOT AVBL
 ***** THE ABOVE OBSERVATIONS ARE NON NWS ARE NOT QUALITY
       CONTROLLED AND MAY MIS-REPORT RAIN FOR SNOW...
$$

  *****  WEATHER ACROSS NORTHERN MINNESOTA  *****

CITY           SKY/WX    TMP DP  RH WIND       PRES   REMARKS
FLAG ISLAND    LGT SNOW  10   7  85 W3        29.93S
WARROAD        LGT SNOW  10   7  85 CALM      29.95R
ROSEAU         LGT SNOW  14   9  79 CALM      29.95S
HALLOCK        LGT SNOW  18  16  93 W6        29.98S WCI   9
THF RVR FALLS  FLURRIES  13  11  92 SW8       29.97F WCI   2
HALSTAD        NOT AVBL
FOSSTON        CLOUDY    10  10 100 W5        29.97F WCI   2
BAUDETTE       LGT SNOW  10   7  87 CALM      29.93S FOG
WASKISH        FLURRIES  12  10  92 W6        29.95S WCI   3
CROOKSTON      CLOUDY    16  12  86 W3        29.99F
$$
  *****  WEATHER ACROSS CENTRAL AND WEST MINNESOTA  *****

CITY           SKY/WX    TMP DP  RH WIND       PRES   REMARKS
BEMIDJI        LGT SNOW  12   9  87 W5        29.95R WCI   4
PARK RAPIDS    CLOUDY    14  10  84 NW7       29.94F WCI   4
WADENA         FLURRIES  12  10  92 NW6       29.95F WCI   3
DETROIT LAKES  FLURRIES  16  14  93 NW9       29.97S WCI   4
MOORHEAD       CLOUDY    18  12  79 CALM      30.01F
FERGUS FALLS   CLOUDY    16  12  86 N5        30.03S WCI   9
ELBOW LAKE     CLOUDY    16  14  92 NW10      29.99S WCI   4
MORRIS MN      CLOUDY    19  16  86 NW7       29.99R WCI  10
STAPLES        FLURRIES  14  10  85 W6        29.96F WCI   5
WHEATON        CLOUDY    19  16  86 N5        30.03R WCI  13
$$
  *****  WEATHER ELSEWHERE ACROSS MINNESOTA  *****

CITY           SKY/WX    TMP DP  RH WIND       PRES   REMARKS
DULUTH         CLOUDY    11   9  92 NW5       29.92S WCI   3
INTRNTL FALLS  LGT SNOW  13   9  84 W9        29.93S VSB 3/4 WCI   1
ELY            CLOUDY    10   9  92 CALM      29.90S
CLOQUET        CLOUDY    12   9  85 CALM      29.93F
BRAINERD       CLOUDY    15  11  83 W9        29.97F WCI   3
HIBBING        CLOUDY    14  11  87 W5        29.92S WCI   6
ALEXANDRIA     CLOUDY    17  15  92 NW8       29.96F WCI   7
SAINT CLOUD    CLOUDY    14  12  92 N3        30.00F
MINNEAPOLIS    CLOUDY    19  16  88 NW9       30.01S WCI   8
$$

  *****  WEATHER ACROSS SOUTH DAKOTA  *****

CITY           SKY/WX    TMP DP  RH WIND       PRES   REMARKS
SIOUX FALLS    CLOUDY    28  26  92 CALM      29.98F
BROOKINGS      NOT AVBL
WATERTOWN      CLOUDY    26  25  96 NW3       29.95S
HURON          CLOUDY    32  26  78 NW12      29.99S WCI  23
SISSETON         N/A     21  17  84 CALM      29.98S
ABERDEEN       CLOUDY    27  27 100 CALM      29.99S
MITCHELL       CLOUDY    34  27  75 W10       30.01S
PIERRE         MOCLDY    33  28  81 NW5       30.00F
MOBRIDGE       CLOUDY    28  25  88 CALM      29.96S
RAPID CITY     CLOUDY    39  24  55 NW22G29   30.05S
$$

  *****  SOME WEATHER IN NEARBY STATES *****

CITY           SKY/WX    TMP DP  RH WIND       PRES   REMARKS
GLASGOW MT     CLOUDY    33  25  72 NW17      30.21R WCI  22
GREAT FALLS MT FAIR      24  19  81 SW9       30.39S WCI  14
CHEYENNE WY    CLOUDY    26  24  92 NW10      30.15R WCI  16
SCOTTSBLUFF NE CLOUDY    36  21  54 W10       30.14S
OMAHA NE       CLOUDY    35  25  66 NW8       30.02S
DES MOINES IA  CLOUDY    26  17  68 N10       30.01R WCI  16
DAVENPORT IA   CLOUDY    22  14  71 N9        30.01R WCI  12
CHICAGO IL     FAIR      19  11  70 N14       29.92R WCI   6
EAU CLAIRE WI  FAIR       3   2  95 SW6       29.99R WCI  -8
LA CROSSE WI   FAIR      10   8  92 CALM      30.01S
$$

  *****  SOME NATIONAL WEATHER *****

CITY           SKY/WX    TMP DP  RH WIND       PRES   REMARKS
LA GUARDIA NY  CLOUDY    28  24  85 N7        29.54F WCI  21
RALEIGH NC     MOCLDY    34  20  56 SW10      29.70R
ATLANTA GA     FAIR      40  29  64 W8        29.84F
NEW ORLEANS LA MOCLDY    43  42  97 CALM      29.98S
OKLAHOMA CITY  MOCLDY    44  26  49 N10       30.00R
ALBUQUERQUE NM FAIR      27   5  39 CALM      30.00S
SALT LAKE CITY FAIR      25  23  92 N10       30.34R FOG     WCI  15
LOS ANGELES CA FAIR      52  35  52 E6        29.96S
BOISE ID       CLOUDY    25  21  85 S12       30.51R WCI  14
SEATTLE WA     FAIR      36  34  92 CALM      30.37F
$$

*** WEATHER ACROSS MANITOBA...SASKATCHEWAN AND ONTARIO ***
                ***ONTARIO***

CITY           SKY/WX    TMP DP  RH WIND       PRES   REMARKS
GERALDTON      CRYSTALS  -9 -15  77 SW5       29.85S WCI -21
THUNDER BAY    MOCLDY    -6  -9  84 W5        29.96S WCI -17
SIOUX LOOKOUT  PTCLDY   -11 -15  84 S3        29.88S
TORONTO        PTCLDY     5  -2  72 N14G23    29.70R WCI -12
BIG TROUT LK   MOCLDY   -22 -29  69 VRB2      29.87S
PICKLE LAKE    NOT AVBL
DRYDEN         FLURRIES   1   0  92 SW7       29.88S WCI -11
KENORA         LGT SNOW   7   3  85 W6        29.90S FOG     WCI  -3
$$
                *** MANITOBA***

CITY           SKY/WX    TMP DP  RH WIND       PRES   REMARKS
BRANDON        FLURRIES  19  18  93 NE2       29.99R
DAUPHIN        CLOUDY    19  18  93 N13       30.04R WCI   7
ISLAND LAKE    CLOUDY     5   0  78 NW5       29.92F WCI  -4
PILOT MOUND      N/A     19  18  93 NW2         N/A
THE PAS        FLURRIES  16  12  86 N10       30.05S WCI   3
THOMPSON       FLURRIES   0  -4  85 NW5       30.01R WCI -10
WINNIPEG       FLURRIES  16  12  86 NW8       29.97F WCI   5
LYNN LAKE      LGT SNOW   7   5  92 NW10      30.01S WCI  -8
CHURCHILL      LGT SNOW  -9 -15  77 N24G31    30.05S BLWGSNOWWCI -36
GILLAM         FLURRIES  -4  -9  77 N10       30.00R WCI -21
$$
                ***SASKATCHEWAN***

CITY           SKY/WX    TMP DP  RH WIND       PRES   REMARKS
ESTEVAN        FLURRIES  30  27  86 NW16G22   30.04R WCI  19
KINDERSLEY     PTCLDY    27  23  86 W10       30.26R WCI  17
LLOYDMINSTER   CLEAR     27  23  86 W15       30.22S WCI  15
PRINCE ALBERT  FLURRIES  30  27  86 W9        30.14S WCI  22
REGINA         MOCLDY    28  25  86 NW14      30.12R WCI  17
YORKTON        CLOUDY    27  21  80 NW16      30.05R WC



USA.gov is the U.S. government's official web portal to all federal, state and local government web resources and services.